User: anonymous   Login
Location: Rio de Janeiro
(22.9068°S, 43.1729°W)
Time: 01:22:08
(UTC-03:00)
Language:

AAUSAT CUBESAT 2 - Orbit

View from above orbital plane
View from above orbital plane
View from above satellite
View from above satellite

Ground track
Ground track

The orbit data is extracted from the following two-line orbital elements,

1 32788U 08021F   24106.46738505  .00027326  00000-0  15058-2 0  9991
2 32788  97.5935  86.6892 0007939  51.9463 308.2483 15.13941542868828
Epoch (UTC): 15 April 2024 11:13:02
Eccentricity: 0.0007939
inclination: 97.5935°
perigee height: 519 km
apogee height: 529 km
right ascension of ascending node: 86.6892°
argument of perigee: 51.9463°
revolutions per day: 15.13941542
mean anomaly at epoch: 308.2483°
orbit number at epoch: 86882

The dashed part of the orbit path shows where the satellite is in the earth's shadow,  

DLR